Location: Innerarity Island Observatory
(30.3139°N, 87.4867°W)
Time: 00:07:24
(UTC-06:00)

Amateur Radio Satellites - All Passes

Search period start: 21 February 2017 23:37
Search period end: 22 February 2017 23:37
Location: Innerarity Island Observatory, 30.3139°N, 87.4867°W

Satellite Date Start Highest point End Downlink Frequencies (MHz)
Time Altitude Azimuth
ESTCUBE 1 21 Feb 23:53:25 23:55:24 13° 266° (W) 23:57:23 437.505/2401.250
SO-50 21 Feb 23:57:54 23:59:48 12° 309° (NW) 00:01:43 436.795
SRMSAT 21 Feb 23:58:52 00:03:00 19° 166° (SSE) 00:07:09 437.500
AIST 2D 22 Feb 00:00:49 00:03:03 16° 288° (WNW) 00:05:17 435.315
RS-15 22 Feb 00:08:27 00:13:27 13° 26° (NNE) 00:18:25 29.354- 29.394
BUGSAT 1 22 Feb 00:09:04 00:13:16 63° 101° (E) 00:17:28 437.445
DUCHIFAT 1 22 Feb 00:31:59 00:35:08 20° 289° (WNW) 00:38:17 145.980
VELOX 1 22 Feb 00:36:16 00:38:06 12° 266° (W) 00:39:57 145.980
EO-79 22 Feb 00:38:46 00:41:07 15° 291° (WNW) 00:43:28 145.935-145.965
DX 1 22 Feb 00:39:01 00:42:38 26° 262° (W) 00:46:16 434.975-435.025
FO-29 22 Feb 00:46:26 00:46:55 10° 303° (WNW) 00:47:21 435.910
JUGNU 22 Feb 00:55:07 01:00:07 29° 185° (S) 01:05:09 437.505
UKube-1 22 Feb 00:59:31 01:02:47 21° 263° (W) 01:06:05 .
ITUPSAT 1 22 Feb 01:04:35 01:08:05 20° 69° (ENE) 01:11:35 437.325
Oscar 19 22 Feb 01:09:17 01:14:24 71° 102° (ESE) 01:19:29 437.125/150
BEESAT 22 Feb 01:13:23 01:17:19 26° 70° (ENE) 01:21:15 436.000
Gurwin Techsat 1B 22 Feb 01:22:39 01:27:48 49° 100° (E) 01:32:55 435.225
SRMSAT 22 Feb 01:46:35 01:51:40 29° 175° (S) 01:56:46 437.500
PCSat 22 Feb 01:48:51 01:53:54 38° 61° (ENE) 01:58:55 145.827
AO-7 22 Feb 02:05:48 02:11:28 20° 96° (E) 02:17:05 .
MOZHAYETS 4 22 Feb 02:08:37 02:12:44 33° 73° (ENE) 02:16:54
RS-15 22 Feb 02:18:28 02:30:11 48° 54° (NE) 02:41:21 29.354- 29.394
ITUPSAT 1 22 Feb 02:41:24 02:45:38 31° 262° (W) 02:49:55 437.325
JUGNU 22 Feb 02:44:30 02:48:38 19° 194° (SSW) 02:52:46 437.505
BEESAT 22 Feb 02:51:06 02:54:57 24° 263° (W) 02:58:48 436.000
Oscar 19 22 Feb 02:52:11 02:53:03 10° 295° (WNW) 02:53:56 437.125/150
CUBESAT XI-V 22 Feb 02:58:53 03:01:50 17° 69° (ENE) 03:04:47 437.345
Gurwin Techsat 1B 22 Feb 03:04:06 03:07:16 16° 293° (WNW) 03:10:26 435.225
KKS-1 22 Feb 03:07:44 03:11:46 37° 73° (ENE) 03:15:50 437.445
ITAMSAT 1 22 Feb 03:13:34 03:18:49 77° 284° (WNW) 03:24:01 435.822/435.867
PCSat 22 Feb 03:32:59 03:36:58 21° 254° (WSW) 03:40:56 145.827
SRMSAT 22 Feb 03:35:19 03:40:23 29° 185° (S) 03:45:28 437.500
MOZHAYETS 4 22 Feb 03:46:50 03:49:54 17° 265° (W) 03:52:59
STARS 22 Feb 03:52:20 03:56:33 52° 75° (ENE) 04:00:48 437.465
AO-7 22 Feb 03:56:24 04:04:39 69° 290° (WNW) 04:12:49 .
AO-85 22 Feb 03:57:16 04:01:44 41° 114° (ESE) 04:05:55 145.980
M-CUBED/EXP-1 PRIME 22 Feb 04:02:08 04:05:28 54° 72° (ENE) 04:08:42 437.505
RS-15 22 Feb 04:31:19 04:42:25 44° 253° (WSW) 04:53:03 29.354- 29.394
CUBESAT XI-V 22 Feb 04:34:33 04:38:52 36° 262° (W) 04:43:10 437.345
KKS-1 22 Feb 04:46:05 04:48:24 14° 265° (W) 04:50:42 437.445
DOVE 4 22 Feb 04:47:01 04:49:19 13° 95° (E) 04:51:39 437.250
STRAND 1 22 Feb 05:09:32 05:10:20 10° 64° (ENE) 05:11:07 437.568
SRMSAT 22 Feb 05:24:59 05:29:04 19° 195° (SSW) 05:33:07 437.500
CUTE-I 22 Feb 05:33:57 05:38:54 37° 99° (E) 05:43:49 437.470
XW-2F 22 Feb 05:36:47 05:40:23 40° 99° (E) 05:43:57 145.980 - 146.000
KAITUO 1B 22 Feb 05:38:27 05:41:54 34° 98° (E) 05:45:19 145.475/437.950
XW-2D 22 Feb 05:39:02 05:42:43 47° 99° (E) 05:46:23 145.860 - 145.880
AO-85 22 Feb 05:39:22 05:42:12 16° 305° (NW) 05:44:57 145.980
XW-2B 22 Feb 05:43:56 05:47:41 53° 100° (E) 05:51:23 145.730 - 145.750
BEESAT 3 22 Feb 05:45:03 05:48:17 26° 111° (ESE) 05:51:33 437.485
XW-2C 22 Feb 05:52:21 05:56:10 73° 100° (E) 05:59:57 145.795 - 145.815
AO-7 22 Feb 05:54:03 05:55:53 11° 307° (NW) 05:57:42 .
LilacSat-2 22 Feb 06:05:10 06:09:01 69° 282° (WNW) 06:12:47 437.200
BEESAT 2 22 Feb 06:15:15 06:18:17 22° 110° (ESE) 06:21:22 435.950
NUDT-PHONESAT 22 Feb 06:17:45 06:21:27 59° 283° (WNW) 06:25:08 437.300
DOVE 4 22 Feb 06:22:32 06:27:03 47° 285° (WNW) 06:31:49 437.250
HO-68 22 Feb 06:34:29 06:40:33 30° 98° (E) 06:46:35 435.675
STRAND 1 22 Feb 06:43:43 06:48:49 72° 258° (WSW) 06:53:58 437.568
CUTE 1.7 + AOD 2 22 Feb 06:50:27 06:54:11 31° 98° (E) 06:57:54 437.475
SO-50 22 Feb 06:53:07 06:55:03 12° 51° (NE) 06:56:59 436.795
XW-2A 22 Feb 06:55:42 06:59:08 64° 100° (E) 07:02:33 145.665 - 145.685
Tancredo 1 22 Feb 06:56:09 06:57:29 12° 125° (SE) 06:58:49 437.200
KAITUO 1B 22 Feb 07:14:33 07:15:32 11° 291° (WNW) 07:16:31 145.475/437.950
CUTE-I 22 Feb 07:14:38 07:18:37 22° 292° (WNW) 07:22:38 437.470
UWE-3 22 Feb 07:16:21 07:19:20 17° 94° (E) 07:22:15 435.000/436.395/437.385
BEESAT 3 22 Feb 07:23:07 07:25:49 18° 305° (NW) 07:28:35 437.485
ZACube-1 22 Feb 07:45:23 07:48:45 20° 95° (E) 07:52:04 437.345
BEESAT 2 22 Feb 07:52:53 07:55:56 21° 304° (NW) 07:59:00 435.950
SEEDS 22 Feb 07:54:27 07:58:33 59° 284° (WNW) 08:02:37 437.485
AAUSAT CUBESAT 2 22 Feb 07:54:37 07:58:41 58° 100° (E) 08:02:42 437.432
ISS 22 Feb 07:55:58 07:59:14 70° 133° (SE) 08:02:31 437.550
CUBEBUG 2 22 Feb 08:06:02 08:10:47 73° 283° (WNW) 08:15:29 437.445
UNISAT 6 22 Feb 08:07:16 08:08:46 12° 67° (ENE) 08:10:17 437.425
TIGRISAT 22 Feb 08:09:01 08:10:14 11° 66° (ENE) 08:11:26 435.000
HO-68 22 Feb 08:21:40 08:28:15 41° 291° (WNW) 08:34:48 435.675
DELFI C3 22 Feb 08:26:52 08:28:09 11° 94° (E) 08:29:26 145.870
CUTE 1.7 + AOD 2 22 Feb 08:27:13 08:29:42 16° 290° (WNW) 08:32:12 437.475
Tancredo 1 22 Feb 08:30:24 08:33:28 38° 317° (NW) 08:36:33 437.200
SO-50 22 Feb 08:31:26 08:35:49 55° 246° (WSW) 08:40:10 436.795
AO-73 22 Feb 08:35:02 08:39:35 76° 102° (ESE) 08:44:02 145.935
Oscar 11 22 Feb 08:46:24 08:50:45 89° 125° (SE) 08:55:02 .
UWE-3 22 Feb 08:51:34 08:55:48 35° 287° (WNW) 08:59:58 435.000/436.395/437.385
PRISM 22 Feb 09:00:22 09:04:20 47° 260° (W) 09:08:17 437.425
FO-29 22 Feb 09:00:57 09:06:47 31° 67° (ENE) 09:13:08 435.910
ZACube-1 22 Feb 09:21:05 09:24:56 27° 288° (WNW) 09:28:44 437.345
O/OREOS (USA 219) 22 Feb 09:24:53 09:29:28 81° 255° (WSW) 09:34:03 437.305
ISS 22 Feb 09:35:13 09:36:00 11° 327° (NNW) 09:36:49 437.550
UNISAT 6 22 Feb 09:40:41 09:44:56 49° 261° (W) 09:49:20 437.425
TIGRISAT 22 Feb 09:42:04 09:46:21 51° 260° (W) 09:50:45 435.000
EO-79 22 Feb 09:50:22 09:52:15 13° 68° (ENE) 09:54:08 145.935-145.965
DELFI C3 22 Feb 09:59:26 10:03:00 34° 286° (WNW) 10:06:33 145.870
POLYITAN 1 22 Feb 10:05:24 10:08:30 20° 71° (ENE) 10:11:37 437.675
QB50P2 22 Feb 10:07:55 10:11:16 23° 72° (ENE) 10:14:39 145.880/145.840
NANOSAT C BR1 22 Feb 10:08:20 10:11:22 20° 71° (ENE) 10:14:26 145.865
YUBILEINY 22 Feb 10:10:00 10:18:43 67° 92° (E) 10:27:26 435.215
ESTCUBE 1 22 Feb 10:13:51 10:16:13 14° 94° (E) 10:18:36 437.505/2401.250
AIST 2D 22 Feb 10:28:10 10:31:40 70° 78° (ENE) 10:35:13 435.315
FO-29 22 Feb 10:45:17 10:51:28 40° 263° (W) 10:58:22 435.910
BUGSAT 1 22 Feb 10:54:03 10:56:55 19° 71° (ENE) 10:59:48 437.445
VELOX 1 22 Feb 10:54:57 10:56:46 12° 94° (E) 10:58:35 145.980
DUCHIFAT 1 22 Feb 11:16:46 11:20:52 58° 259° (W) 11:25:01 145.980
EO-79 22 Feb 11:23:42 11:27:36 38° 261° (W) 11:31:34 145.935-145.965
SPROUT 22 Feb 11:27:32 11:31:07 25° 97° (E) 11:34:41 437.525
POLYITAN 1 22 Feb 11:40:41 11:44:05 24° 263° (W) 11:47:31 437.675
NANOSAT C BR1 22 Feb 11:43:29 11:46:54 24° 263° (W) 11:50:19 145.865
QB50P2 22 Feb 11:43:48 11:46:57 20° 264° (W) 11:50:07 145.880/145.840
ESTCUBE 1 22 Feb 11:48:58 11:53:06 37° 286° (WNW) 11:57:12 437.505/2401.250
YUBILEINY 22 Feb 12:09:53 12:16:03 21° 288° (WNW) 12:22:15 435.215
Oscar 19 22 Feb 12:20:18 12:25:20 57° 75° (ENE) 12:30:23 437.125/150
50 SAT 22 Feb 12:28:37 12:31:57 47° 284° (WNW) 12:35:17 437.505
BUGSAT 1 22 Feb 12:28:54 12:32:05 23° 263° (W) 12:35:19 437.445
VELOX 1 22 Feb 12:29:10 12:33:20 42° 286° (WNW) 12:37:29 145.980
DX 1 22 Feb 12:31:52 12:36:13 82° 101° (E) 12:40:35 434.975-435.025
Gurwin Techsat 1B 22 Feb 12:38:02 12:43:02 44° 73° (ENE) 12:48:05 435.225
UKube-1 22 Feb 12:50:53 12:55:12 84° 283° (WNW) 12:59:31 .
AO-7 22 Feb 12:59:51 13:04:59 18° 58° (ENE) 13:10:07 .
SPROUT 22 Feb 13:03:41 13:06:49 20° 289° (WNW) 13:09:57 437.525
Oscar 19 22 Feb 14:02:52 14:04:54 12° 266° (W) 14:06:56 437.125/150
MOZHAYETS 4 22 Feb 14:11:15 14:13:01 12° 93° (E) 14:14:45
AO-85 22 Feb 14:13:56 14:17:51 89° 238° (WSW) 14:21:54 145.980
Gurwin Techsat 1B 22 Feb 14:19:47 14:23:06 17° 265° (W) 14:26:27 435.225
ITAMSAT 1 22 Feb 14:25:36 14:30:48 89° 254° (WSW) 14:36:02 435.822/435.867
PCSat 22 Feb 14:46:10 14:46:52 10° 102° (ESE) 14:47:35 145.827
ITUPSAT 1 22 Feb 14:46:56 14:51:44 78° 284° (WNW) 14:56:30 437.325
AO-7 22 Feb 14:48:22 14:56:44 83° 253° (WSW) 15:05:09 .
BEESAT 22 Feb 14:55:51 15:00:34 59° 285° (WNW) 15:05:15 436.000
Tancredo 1 22 Feb 15:02:50 15:04:35 14° 35° (NE) 15:06:20 437.200
KKS-1 22 Feb 15:06:28 15:07:53 11° 94° (E) 15:09:18 437.445
BEESAT 3 22 Feb 15:43:54 15:47:41 39° 60° (ENE) 15:51:26 437.485
MOZHAYETS 4 22 Feb 15:45:56 15:50:20 46° 285° (WNW) 15:54:41
STARS 22 Feb 15:48:34 15:51:12 15° 95° (E) 15:53:49 437.465
ISS 22 Feb 16:04:28 16:07:43 62° 45° (NE) 16:10:55 437.550
BEESAT 2 22 Feb 16:14:58 16:18:41 35° 59° (ENE) 16:22:23 435.950
XW-2D 22 Feb 16:17:25 16:18:12 11° 69° (ENE) 16:19:00 145.860 - 145.880
XW-2B 22 Feb 16:21:42 16:23:08 12° 69° (ENE) 16:24:35 145.730 - 145.750
PCSat 22 Feb 16:24:11 16:29:34 72° 295° (WNW) 16:34:59 145.827
XW-2C 22 Feb 16:29:16 16:31:34 15° 71° (ENE) 16:33:52 145.795 - 145.815
RS-15 22 Feb 16:33:11 16:44:19 53° 109° (ESE) 16:55:57 29.354- 29.394
CUBESAT XI-V 22 Feb 16:36:20 16:40:56 86° 104° (ESE) 16:45:31 437.345
Tancredo 1 22 Feb 16:37:59 16:41:01 42° 230° (SW) 16:44:03 437.200
KKS-1 22 Feb 16:40:18 16:44:36 46° 286° (WNW) 16:48:52 437.445
LilacSat-2 22 Feb 16:41:43 16:44:50 24° 73° (ENE) 16:47:58 437.200
AO-7 22 Feb 16:47:57 16:50:18 11° 267° (W) 16:52:39 .
CUTE-I 22 Feb 16:50:12 16:54:58 34° 71° (ENE) 16:59:45 437.470
NUDT-PHONESAT 22 Feb 16:51:53 16:54:56 24° 73° (ENE) 16:58:00 437.300
HO-68 22 Feb 17:01:00 17:03:22 12° 59° (ENE) 17:05:43 435.675
M-CUBED/EXP-1 PRIME 22 Feb 17:19:03 17:22:51 70° 287° (WNW) 17:26:57 437.505
DOVE 4 22 Feb 17:22:33 17:26:44 90° 251° (WSW) 17:30:53 437.250
BEESAT 3 22 Feb 17:23:32 17:24:52 11° 252° (WSW) 17:26:12 437.485
STARS 22 Feb 17:23:34 17:27:34 34° 287° (WNW) 17:31:34 437.465
CUTE 1.7 + AOD 2 22 Feb 17:39:37 17:41:01 11° 68° (ENE) 17:42:25 437.475
XW-2F 22 Feb 17:45:38 17:49:17 44° 261° (W) 17:52:58 145.980 - 146.000
KAITUO 1B 22 Feb 17:46:08 17:49:49 53° 260° (W) 17:53:34 145.475/437.950
XW-2D 22 Feb 17:48:25 17:51:59 37° 262° (W) 17:55:35 145.860 - 145.880
XW-2B 22 Feb 17:53:29 17:56:58 33° 262° (W) 18:00:28 145.730 - 145.750
BEESAT 2 22 Feb 17:54:05 17:56:06 13° 252° (WSW) 17:58:06 435.950
XW-2C 22 Feb 18:02:18 18:05:30 25° 263° (W) 18:08:43 145.795 - 145.815
LilacSat-2 22 Feb 18:16:34 18:19:03 16° 265° (W) 18:21:32 437.200
NUDT-PHONESAT 22 Feb 18:26:35 18:28:48 15° 265° (W) 18:31:02 437.300
CUTE-I 22 Feb 18:30:56 18:34:59 22° 264° (W) 18:39:05 437.470
AAUSAT CUBESAT 2 22 Feb 18:39:55 18:42:48 18° 71° (ENE) 18:45:40 437.432
SEEDS 22 Feb 18:40:03 18:44:03 41° 75° (ENE) 18:48:02 437.485
HO-68 22 Feb 18:42:48 18:49:59 83° 75° (ENE) 18:57:12 435.675
RS-15 22 Feb 18:45:59 18:56:57 42° 308° (NW) 19:08:24 29.354- 29.394
XW-2A 22 Feb 18:54:11 18:57:17 35° 261° (W) 19:00:26 145.665 - 145.685
CUBEBUG 2 22 Feb 18:58:13 19:02:19 44° 74° (ENE) 19:06:34 437.445
STRAND 1 22 Feb 19:00:02 19:05:09 64° 102° (ESE) 19:10:13 437.568
CUTE 1.7 + AOD 2 22 Feb 19:12:18 19:16:24 45° 261° (W) 19:20:30 437.475
AO-73 22 Feb 19:24:54 19:28:37 28° 72° (ENE) 19:32:25 145.935
Oscar 11 22 Feb 19:35:29 19:39:20 32° 73° (ENE) 19:43:13 .
UWE-3 22 Feb 19:41:55 19:46:15 89° 264° (W) 19:50:46 435.000/436.395/437.385
ZACube-1 22 Feb 20:09:56 20:14:18 72° 259° (W) 20:18:47 437.345
AAUSAT CUBESAT 2 22 Feb 20:14:34 20:18:02 25° 263° (W) 20:21:31 437.432
SEEDS 22 Feb 20:18:28 20:19:50 11° 267° (W) 20:21:13 437.485
YUBILEINY 22 Feb 20:28:43 20:35:26 24° 73° (ENE) 20:42:04 435.215
HO-68 22 Feb 20:35:20 20:38:15 13° 267° (W) 20:41:10 435.675
CUBEBUG 2 22 Feb 20:37:44 20:39:08 11° 268° (W) 20:40:34 437.445
DELFI C3 22 Feb 20:38:37 20:42:29 53° 76° (ENE) 20:46:21 145.870
STRAND 1 22 Feb 20:41:53 20:43:42 12° 295° (WNW) 20:45:30 437.568
PRISM 22 Feb 20:47:22 20:51:03 33° 99° (E) 20:54:43 437.425
AO-73 22 Feb 21:01:40 21:04:47 19° 265° (W) 21:07:58 145.935
SO-50 22 Feb 21:01:48 21:04:17 14° 108° (ESE) 21:06:44 436.795
JUGNU 22 Feb 21:03:55 21:07:59 19° 166° (SSE) 21:12:04 437.505
RS-15 22 Feb 21:10:46 21:14:18 11° 338° (NNW) 21:17:51 29.354- 29.394
Oscar 11 22 Feb 21:12:49 21:15:28 16° 265° (W) 21:18:08 .
UNISAT 6 22 Feb 21:37:48 21:42:24 54° 100° (E) 21:46:56 437.425
TIGRISAT 22 Feb 21:39:04 21:43:39 51° 100° (E) 21:48:09 435.000
O/OREOS (USA 219) 22 Feb 21:53:14 21:56:42 23° 101° (ESE) 22:00:12 437.305
FO-29 22 Feb 22:01:17 22:08:28 46° 98° (E) 22:14:55 435.910
PRISM 22 Feb 22:23:55 22:26:00 14° 291° (WNW) 22:28:06 437.425
YUBILEINY 22 Feb 22:24:06 22:32:33 57° 269° (W) 22:40:58 435.215
SO-50 22 Feb 22:39:49 22:44:20 45° 300° (WNW) 22:48:48 436.795
ESTCUBE 1 22 Feb 22:42:00 22:46:31 86° 256° (WSW) 22:51:03 437.505/2401.250
JUGNU 22 Feb 22:51:29 22:56:28 29° 176° (S) 23:01:28 437.505
50 SAT 22 Feb 22:57:29 23:00:16 22° 73° (ENE) 23:03:03 437.505
DUCHIFAT 1 22 Feb 23:06:34 23:10:24 32° 98° (E) 23:14:12 145.980
EO-79 22 Feb 23:13:38 23:17:49 50° 100° (E) 23:21:57 145.935-145.965
UNISAT 6 22 Feb 23:16:55 23:18:32 12° 293° (WNW) 23:20:10 437.425
TIGRISAT 22 Feb 23:17:55 23:19:47 12° 293° (WNW) 23:21:39 435.000
VELOX 1 22 Feb 23:20:08 23:24:30 80° 77° (ENE) 23:28:53 145.980
DX 1 22 Feb 23:21:51 23:25:42 32° 73° (ENE) 23:29:34 434.975-435.025
